Погода в Чутыре

Россия / Удмуртская Республика     57°23′41″N   53°14′07″E
В апреле 2022 года жителям России запретили посещать сайт meteo.paraplan.net по решению Генеральной прокуратуры. Аудитория сайта уменьшилась в 10 раз. Владельцы сайта не видят смысла в поддержке погодного сервера в таких условиях. Сайт будет закрыт в октябре.
темп.,
°C
ветер,
м/с
пор.,
м/с
влажн.,
%
обл.,
%
осадки,
мм/ч
давл.,
гПа
погр.,
м
3 октября, пн
пн301:00+11ю61489100 0.0 1015525
04:00+11ю51485100 0.0 1015493
07:00+10ю51388100 0.1 1016514
10:00+11ю61385100 2.2 1017505
13:00+15ююз61268100 0.0 1018633
16:00+15ю51261100 0.0 1019716
19:00+13ю51463100 0.0 1021446
22:00+11ю5156278 0.0 1022451
4 октября, вт
вт401:00+10ююз5146117 0.0 1023421
04:00+8ю4126465 0.0 1024288
07:00+7ю4126446 0.0 1026259
10:00+11ю5114897 0.0 1026422
13:00+14ю51038100 0.0 1027733
16:00+12ю4944100 0.0 1027534
19:00+9ююв3115292 0.0 1028303
22:00+8ю4125196 0.0 1028292
5 октября, ср
ср501:00+8ююв3951100 0.0 1027228
04:00+7ю3952100 0.0 1027239
07:00+7ю51151100 0.0 1027424
10:00+7ю51175100 0.1 1027716
13:00+7ю41177100 0.0 1026656
16:00+9ююв495327 0.0 1024625
19:00+7ююв41253100 0.0 1024407
22:00+8ю51353100 0.0 1022529
6 октября, чт
чт601:00+7ю51371100 0.1 1021546
04:00+6ююв41094100 1.1 1019560
07:00+5ююв4995100 0.9 1019422
10:00+7ююв4995100 1.1 1017487
13:00+8ю4896100 0.0 1016538
16:00+8ю379186 0.1 1015393
19:00+7ююв379798 0.1 1015333
22:00+6ю259899 0.4 1014205
7 октября, пт
пт701:00+6зюз269155 0.1 1013244
04:00+4зюз379091 0.1 1013246
07:00+3юз389620 0.0 1012238
10:00+6юз4881100 0.0 1010608
13:00+8юз5866100 0.0 10091300
16:00+5юз41094100 0.3 1009882
19:00+5зюз4995100 0.1 1009566
22:00+6зюз499399 0.1 1008763